Theta_e
336 336 335 334 333 333 332 332 332 332 331 331 330 331 331 330 331 331 332 333 333 333 333 333 332 332 332 332 332 332 332 333 334 334 334 334 333 333 333 332 330 329 330 329 330 331 333 333 331 330 330 330 330 330 330 330 330 331 330 329 329 326 324
334 334 334 333 332 332 331 331 331 331 330 330 330 330 329 329 329 329 330 331 331 331 332 332 332 332 332 332 332 331 331 331 332 333 334 334 334 333 333 332 331 331 331 330 329 329 330 332 332 331 330 329 329 329 330 330 330 330 330 329 330 328 325
333 333 332 332 331 331 331 331 330 330 330 330 330 329 328 328 328 328 328 328 329 329 329 330 330 330 331 332 332 331 331 330 331 331 332 334 334 333 333 333 332 331 330 329 328 328 328 329 330 331 330 329 329 329 329 330 329 330 330 329 330 328 326
332 332 331 331 331 331 331 330 330 329 329 329 329 328 328 327 328 328 328 328 328 328 328 328 328 329 330 331 331 331 331 330 330 330 330 332 333 333 333 333 332 331 330 328 328 328 328 328 329 331 330 329 329 329 329 329 329 329 330 329 329 329 326
330 330 330 330 331 331 330 330 329 329 329 328 328 328 328 328 328 328 328 328 328 327 327 327 328 329 329 330 330 330 330 330 329 329 329 330 331 331 331 330 331 331 330 329 328 328 329 329 329 331 331 330 330 330 329 329 329 329 329 329 329 329 328
328 329 329 330 330 330 330 329 328 328 328 328 328 328 328 328 328 328 328 328 327 326 326 327 327 328 329 329 329 329 329 329 329 329 329 329 329 329 329 329 329 329 329 329 329 329 328 329 329 330 330 330 331 330 330 330 329 329 329 329 329 329 329
327 328 329 329 329 329 329 328 328 328 327 326 326 327 328 328 328 328 328 327 327 327 327 327 328 328 329 329 328 327 328 327 327 328 329 329 328 328 329 329 328 329 329 329 329 329 328 328 329 329 330 330 330 330 330 330 329 329 329 329 330 329 330
328 328 329 329 328 328 327 328 327 326 326 325 325 326 327 327 328 328 328 327 328 328 328 328 328 328 328 328 328 328 328 327 327 328 329 329 329 329 329 329 329 329 329 329 329 329 328 328 329 329 329 330 331 330 330 330 329 329 329 329 329 329 330
328 328 328 328 327 327 326 326 325 325 325 324 325 326 325 326 327 327 327 327 328 328 328 329 329 329 328 328 329 329 329 329 328 329 328 328 329 329 329 329 329 329 329 329 329 329 329 329 329 329 329 329 331 332 332 330 329 329 329 329 329 329 329
327 326 327 326 326 325 324 324 325 325 326 325 325 325 325 325 326 326 326 326 326 327 327 328 329 328 329 329 329 329 329 328 328 328 328 328 328 328 329 329 329 329 329 329 329 329 330 330 329 330 329 329 329 331 332 332 330 329 329 329 328 329 329
326 325 325 325 325 325 324 323 324 325 326 325 325 325 325 325 325 325 325 325 326 327 327 328 328 328 328 328 328 328 328 328 327 327 328 328 328 329 329 329 329 329 329 329 330 329 329 330 329 329 329 329 329 329 330 332 331 328 328 329 329 329 329
324 324 324 324 324 324 323 322 324 325 325 324 324 324 324 324 324 324 325 326 327 327 328 327 327 328 328 327 327 327 327 327 327 327 327 327 328 328 328 329 329 329 329 329 329 328 328 329 329 329 329 329 329 329 328 330 332 330 328 329 329 329 329
322 322 322 323 323 322 322 322 322 324 324 324 323 323 323 324 324 324 326 326 327 327 327 327 326 327 327 327 327 327 327 327 327 327 327 327 328 328 328 329 329 328 328 328 328 328 329 329 330 329 329 329 328 329 327 327 330 330 328 328 329 329 329
319 319 320 321 321 321 321 321 322 323 323 323 322 321 322 323 323 324 325 326 325 325 325 326 327 327 327 327 327 327 327 327 327 327 327 327 328 328 328 328 328 328 328 328 329 329 329 329 330 330 329 328 328 328 327 326 327 328 327 327 329 329 329
317 317 318 319 319 320 320 320 321 322 322 321 322 321 321 322 322 322 323 324 323 323 324 325 326 326 326 326 327 327 327 326 326 327 327 327 327 327 327 328 328 328 328 328 328 329 329 329 329 329 328 328 328 327 327 326 326 327 326 327 328 328 329
316 317 317 318 318 318 318 318 320 320 320 320 321 320 320 320 320 321 321 322 323 323 323 324 325 325 325 325 326 326 327 326 326 326 326 326 326 326 327 327 327 327 327 328 328 327 328 327 328 328 327 327 327 327 327 327 325 325 326 326 327 327 327
315 316 316 316 316 316 316 317 318 319 319 319 319 319 319 319 319 319 320 321 322 323 323 324 324 325 325 326 326 326 327 327 326 326 326 326 326 326 326 326 326 325 326 326 327 326 326 326 327 327 326 326 326 327 326 326 326 326 326 326 326 327 327
314 314 315 315 314 315 315 316 317 317 317 317 317 318 318 317 317 318 319 319 320 321 322 323 323 324 326 326 326 326 327 327 326 326 326 326 325 325 325 325 325 325 325 325 325 325 325 325 326 327 327 326 326 326 326 326 326 325 326 326 326 326 327
312 312 313 313 313 313 313 314 315 315 315 316 316 317 317 315 315 316 317 318 319 319 320 322 323 323 325 325 325 325 324 324 324 324 324 324 324 325 325 325 325 325 325 325 325 324 325 325 326 326 327 326 326 326 325 326 327 326 326 326 326 325 326
310 310 311 311 311 311 311 312 313 313 314 314 315 315 315 314 314 315 316 317 318 318 319 321 322 323 323 323 323 323 323 322 322 321 321 321 322 323 323 323 323 323 324 325 324 325 325 325 325 325 326 326 326 326 325 325 326 326 325 326 326 325 325
309 309 309 310 310 310 310 311 312 313 313 313 313 313 313 313 313 313 314 315 316 317 318 319 321 322 322 321 321 321 321 321 321 320 319 319 319 320 320 320 319 320 322 324 324 325 325 325 325 325 326 326 326 326 326 325 325 326 325 326 326 325 325
308 308 308 308 308 309 309 310 311 312 313 312 312 311 310 311 312 312 312 313 315 317 317 316 316 319 320 319 319 319 319 319 319 319 317 317 317 318 318 318 317 318 320 322 323 325 325 325 325 325 325 325 325 325 325 325 325 325 325 326 325 325 324
308 307 307 307 307 308 308 310 311 311 311 311 311 311 310 311 311 311 311 312 313 315 315 314 314 316 317 317 316 316 315 315 315 315 314 315 316 317 317 317 317 317 319 320 321 323 324 325 325 325 325 325 325 324 324 325 325 325 325 325 325 324 323
307 306 306 306 306 307 308 309 309 309 309 309 310 310 311 311 310 309 310 310 311 313 312 312 313 315 315 315 314 314 314 313 313 312 312 313 314 316 317 316 316 317 318 318 319 320 322 323 324 324 324 324 325 325 324 324 325 325 324 324 324 324 323
305 305 305 305 305 306 307 308 308 308 308 308 309 310 310 310 309 309 309 309 310 310 310 311 313 313 313 313 313 313 313 313 312 310 310 311 312 314 315 315 315 316 317 318 318 319 319 320 321 322 322 323 324 324 324 324 324 324 324 324 324 324 324
303 303 304 304 304 305 306 306 306 306 306 306 308 308 308 308 308 308 308 308 308 308 309 310 312 312 312 312 312 312 311 311 310 308 308 310 310 312 313 313 313 314 315 317 318 318 318 318 319 320 320 321 321 321 322 322 322 322 323 323 323 323 323
302 302 302 302 303 304 304 304 303 304 304 305 306 306 306 306 306 306 305 305 305 305 306 308 309 310 311 311 311 310 309 309 309 308 308 309 310 310 311 311 312 313 314 315 315 316 316 316 317 317 318 318 317 318 319 320 321 321 321 321 321 322 322
302 301 301 302 302 302 302 302 302 302 302 303 303 303 303 303 303 303 303 303 303 303 304 305 307 308 308 308 307 307 306 307 307 307 307 307 308 309 309 310 310 311 312 313 314 315 314 315 315 316 315 314 314 314 315 315 316 318 319 320 319 320 320
301 301 301 301 301 301 301 300 300 301 301 302 302 302 302 302 302 302 302 302 303 302 302 304 305 305 305 305 304 303 303 303 303 303 303 304 305 306 307 308 308 309 309 311 313 314 314 314 313 313 313 312 311 312 311 310 311 314 316 317 317 317 319
300 300 300 300 300 300 300 300 300 301 301 301 301 301 301 301 301 301 301 302 302 301 301 302 303 304 304 303 303 302 301 301 301 301 301 301 302 303 304 304 305 306 307 308 310 312 313 313 312 311 311 311 310 310 310 310 311 312 313 314 314 315 316
299 299 299 299 299 299 299 299 300 300 301 300 300 300 300 300 301 301 301 301 301 301 301 301 301 302 302 302 302 301 301 301 300 300 300 300 300 300 301 302 302 303 304 305 307 309 310 310 309 308 308 308 308 308 308 309 310 311 311 312 312 313 313
300 299 299 299 298 299 299 299 299 300 300 300 300 300 300 300 300 300 300 300 300 300 300 300 300 300 301 301 301 301 300 300 300 300 300 300 300 300 300 300 300 301 302 302 304 305 306 307 306 306 306 306 305 305 305 306 307 308 308 309 308 309 309
300 299 299 298 298 298 298 298 299 299 299 299 299 299 300 300 300 300 300 300 300 300 299 299 300 300 300 300 300 300 300 300 300 300 300 300 300 300 300 300 300 300 300 300 301 302 303 304 304 303 304 303 302 303 304 305 305 305 305 305 306 306 306
300 299 298 298 298 298 298 298 298 298 298 298 298 299 299 299 299 300 299 299 299 299 299 299 299 299 299 300 300 300 300 300 300 300 300 300 300 300 300 300 299 299 299 299 299 300 300 301 302 302 302 302 301 302 304 304 304 304 304 304 304 304 304
300 299 298 298 298 298 297 298 297 297 297 297 297 297 297 298 299 299 300 300 300 300 300 300 300 300 300 300 300 300 300 300 300 301 300 300 300 300 299 299 299 299 299 299 299 299 298 298 299 299 300 301 301 302 302 302 302 303 303 303 303 303 302
300 299 298 298 298 297 297 297 297 297 297 296 296 296 296 297 298 299 299 299 300 300 300 300 300 300 300 300 300 300 300 300 300 301 301 300 300 300 300 300 299 299 299 299 298 298 298 297 298 298 298 299 300 300 301 301 301 302 302 302 302 302 302
299 299 298 298 298 297 297 297 297 297 296 297 296 296 297 297 298 298 298 298 299 299 299 299 299 299 299 299 300 300 300 300 300 300 300 300 300 300 299 299 299 299 299 299 298 298 298 297 297 297 297 298 298 299 299 300 300 300 300 300 300 301 301
Wind_Speed
5 6 7 7 8 9 9 10 11 11 13 15 16 17 17 17 18 19 20 21 22 23 23 25 25 25 25 26 26 25 25 25 24 24 25 23 21 20 23 26 27 26 22 16 13 8 3 2 7 13 18 23 26 28 30 32 33 33 31 31 28 26 26
3 4 5 5 6 7 8 10 11 13 14 15 16 17 18 18 19 19 20 21 22 23 24 25 26 26 26 26 27 26 26 26 25 25 26 26 24 22 21 23 24 25 24 21 18 13 6 4 4 5 10 16 20 26 29 29 31 32 32 32 31 29 28
3 3 3 5 6 7 9 11 12 14 15 15 15 16 18 18 19 19 20 21 22 22 23 25 26 26 27 27 28 28 27 26 26 27 28 27 26 26 24 22 22 22 18 14 16 15 9 7 6 5 8 12 12 19 28 30 29 31 32 33 32 31 31
3 3 5 6 7 8 10 11 13 14 15 16 17 18 18 19 19 19 20 20 21 22 22 23 25 26 27 28 28 28 27 27 27 28 29 28 27 27 28 26 24 24 19 13 16 19 13 8 7 5 9 16 15 16 24 29 30 29 30 33 34 33 33
3 4 5 6 6 7 8 11 12 14 16 17 18 20 20 20 20 20 20 21 21 22 22 22 23 24 26 27 27 26 26 26 27 27 27 28 29 28 28 27 27 27 26 24 23 24 21 17 12 6 7 14 14 14 19 24 27 28 28 31 34 35 34
2 3 4 4 5 6 8 10 13 14 17 18 20 21 22 21 21 21 21 21 22 22 21 20 21 23 25 26 25 25 25 25 27 27 27 28 29 29 28 25 24 26 28 30 29 26 25 22 16 8 8 12 10 9 14 19 22 25 28 32 33 34 35
2 3 3 4 5 6 7 9 12 14 15 18 19 20 20 20 20 20 20 21 22 22 21 20 19 20 22 22 22 22 23 24 25 26 28 28 28 29 28 25 24 26 28 30 30 27 25 24 19 12 8 9 10 8 9 16 21 19 23 31 35 34 35
2 3 4 4 5 6 8 10 12 14 15 17 18 19 20 20 20 21 21 21 21 21 20 19 18 19 20 20 20 20 21 22 23 25 26 26 27 28 28 28 26 27 28 29 29 28 27 26 24 22 15 7 7 7 6 11 18 20 23 27 31 35 35
4 4 4 5 6 8 10 12 13 15 16 18 19 20 20 20 19 20 20 21 21 20 19 19 18 18 18 17 18 19 21 22 22 23 24 25 27 27 28 29 27 27 29 29 28 29 30 29 27 27 24 15 8 5 5 6 8 14 22 23 23 31 35
7 7 7 7 8 10 12 13 14 15 16 18 19 20 20 20 19 19 20 21 21 20 19 19 19 17 16 16 17 19 21 21 20 21 23 24 26 27 28 28 27 27 28 28 28 29 30 30 28 26 26 24 17 7 5 6 5 7 17 23 22 26 33
9 9 9 8 8 10 13 14 13 14 16 18 18 20 21 20 19 19 20 21 21 19 18 18 18 16 15 16 16 16 16 17 17 18 18 20 22 24 25 26 25 26 27 27 28 28 29 29 28 28 28 28 25 16 8 5 6 10 16 22 24 25 29
8 7 7 7 8 10 12 12 12 13 15 17 18 20 21 20 20 20 20 19 19 18 18 17 16 16 15 15 14 13 13 13 14 14 14 16 16 16 19 22 23 24 25 27 27 27 27 27 28 29 28 27 27 24 16 7 5 11 17 20 24 26 27
7 6 7 8 9 10 11 10 11 13 14 15 18 20 20 19 18 18 19 18 18 18 17 15 15 15 15 15 13 12 11 12 12 13 13 15 14 11 13 16 18 20 21 23 25 25 25 25 26 26 26 25 25 24 20 12 5 8 16 21 24 26 27
8 7 7 8 9 10 10 10 11 13 13 15 18 19 18 17 16 16 17 17 18 17 16 14 14 14 14 15 14 13 13 12 11 12 13 14 14 12 10 10 11 13 16 18 19 20 22 23 24 24 23 24 24 23 21 17 9 6 11 18 21 24 25
9 9 8 9 9 9 9 11 12 13 14 16 17 17 16 16 16 16 16 17 18 18 16 14 13 14 14 15 16 16 15 14 13 13 13 13 13 13 11 9 9 10 12 14 13 12 14 17 21 23 23 23 22 23 22 20 14 8 7 13 17 20 23
11 11 11 11 10 9 11 13 13 14 16 16 15 15 16 16 18 18 19 19 18 18 17 15 14 15 15 15 16 16 17 17 15 14 13 14 13 13 11 10 9 9 9 9 10 10 9 10 15 21 22 21 22 22 23 21 16 13 9 10 14 18 22
13 14 15 15 13 13 14 15 15 15 16 16 15 16 17 18 20 21 21 21 21 20 19 17 16 15 16 16 16 15 16 17 16 15 14 14 15 14 12 12 11 10 10 8 7 8 9 10 12 17 18 17 19 19 20 20 17 15 12 11 15 19 20
14 15 16 16 15 16 16 16 16 16 16 17 17 17 19 21 23 23 23 23 22 21 20 18 17 16 17 19 19 18 17 17 17 16 15 14 15 15 14 14 14 12 11 9 9 9 9 9 9 12 13 14 17 17 18 20 19 16 13 12 14 16 16
14 15 16 16 16 16 17 17 17 17 18 18 18 19 21 23 24 24 24 23 23 22 21 19 18 18 18 20 21 21 21 21 20 19 18 17 16 16 16 16 16 14 12 11 11 11 9 7 9 11 11 12 16 17 18 20 21 19 15 13 14 13 13
16 16 17 18 18 17 17 17 17 18 19 20 21 22 23 24 24 24 24 24 24 24 23 21 19 19 20 20 21 21 21 21 22 22 21 20 19 18 17 17 18 16 12 11 11 10 8 7 8 10 10 11 13 15 17 17 18 19 16 14 14 13 13
16 17 17 18 18 17 17 17 18 18 19 21 23 24 25 25 24 25 26 25 25 25 25 24 22 20 20 21 21 21 21 20 21 21 21 21 21 22 21 21 21 20 15 11 9 8 8 8 7 7 8 9 10 13 15 14 14 15 14 13 13 13 14
17 17 17 18 18 18 18 18 19 19 21 22 23 24 26 26 26 27 27 27 27 27 27 27 25 21 21 22 22 22 23 23 22 22 22 23 23 24 26 25 24 23 21 14 9 8 7 7 7 8 8 9 11 12 13 13 14 14 14 12 11 13 15
17 17 18 19 19 19 20 20 21 22 23 24 24 25 26 27 28 29 29 29 29 29 29 29 26 23 23 25 26 27 27 27 27 26 25 25 25 25 27 27 25 24 24 21 16 13 10 7 6 7 7 8 11 12 11 11 13 14 13 12 12 14 14
18 18 19 20 21 22 22 23 24 25 26 26 27 27 28 29 30 30 30 31 31 30 30 29 28 26 27 28 30 32 33 32 32 32 31 29 28 27 27 28 28 26 25 23 21 18 15 11 9 7 6 6 8 10 11 11 12 12 12 13 14 15 14
20 20 21 22 23 23 24 25 26 27 28 28 29 29 30 31 31 31 30 31 31 30 29 29 27 27 28 29 31 33 35 36 36 35 34 33 32 30 30 29 29 28 26 24 22 21 19 16 14 11 8 6 6 6 7 9 11 11 11 14 15 16 17
21 22 22 23 24 25 26 27 28 28 28 29 30 31 31 31 31 31 31 31 31 30 29 28 27 28 29 29 31 34 36 38 39 38 37 38 36 35 34 32 30 29 26 24 24 23 22 20 18 16 13 11 9 7 3 2 4 5 8 12 14 16 16
20 21 22 23 25 26 28 28 28 28 29 30 31 32 32 32 32 31 31 31 31 30 28 27 26 27 29 30 31 34 36 37 39 40 40 40 40 39 37 36 34 32 29 27 25 25 25 25 24 24 23 22 19 16 13 9 5 2 4 7 10 12 13
20 20 22 24 26 27 27 27 27 28 29 31 31 32 32 32 32 32 32 32 32 31 28 26 26 27 28 29 31 33 34 36 38 39 40 41 41 41 39 38 37 36 34 30 25 23 24 24 25 26 27 27 26 25 23 21 17 11 6 4 4 5 6
21 21 22 24 25 26 26 26 26 28 30 31 31 32 32 33 33 33 33 33 34 33 31 28 27 28 29 30 32 33 34 36 37 38 38 39 40 40 39 39 39 38 37 34 27 22 21 22 23 25 25 25 26 26 26 24 23 19 14 10 7 5 3
23 22 22 24 24 24 25 26 26 28 30 32 32 32 33 33 33 34 34 35 35 35 34 31 30 30 30 32 33 34 35 36 37 37 37 37 38 39 39 38 38 38 38 36 32 27 23 23 25 25 24 24 25 26 24 23 23 22 20 17 15 11 7
23 23 24 24 25 25 26 27 28 29 31 32 31 31 32 33 34 34 34 34 35 35 35 33 32 32 31 32 33 34 35 36 36 36 35 36 38 38 38 37 37 37 37 36 35 33 30 28 29 29 26 26 26 26 25 23 22 22 22 22 22 21 19
22 23 24 24 25 26 27 28 28 30 31 31 31 30 31 32 33 33 33 32 33 34 34 33 33 33 32 33 33 34 34 35 35 34 34 35 36 37 37 37 36 35 35 34 34 35 34 33 34 33 31 30 28 26 25 25 24 24 24 25 26 27 27
21 22 23 24 26 27 27 28 29 29 29 30 30 30 30 31 31 31 31 31 31 32 32 32 32 32 33 33 33 34 35 35 33 32 33 34 35 36 36 36 35 35 34 34 33 34 34 34 35 35 35 35 31 26 24 26 27 26 26 27 28 29 29
21 22 23 25 26 27 27 28 28 28 29 29 29 30 29 30 30 29 29 29 30 30 30 30 30 30 31 31 32 32 33 33 32 32 33 34 34 34 34 33 33 32 33 34 34 34 33 32 32 33 33 33 30 27 27 28 28 27 27 28 28 29 30
22 22 23 25 27 27 27 27 28 28 28 29 29 30 29 29 30 30 29 29 29 29 29 29 28 29 29 29 29 30 30 30 31 31 33 33 33 33 32 31 30 30 30 32 33 33 34 33 33 32 30 28 27 26 27 28 29 30 30 30 30 31 32
21 22 23 25 27 27 27 27 27 28 28 29 30 30 29 30 30 31 31 30 30 29 29 28 28 28 28 28 28 28 28 28 29 30 32 32 31 30 30 29 29 29 29 30 31 31 33 33 33 33 31 29 28 27 27 27 28 30 32 33 32 32 31
22 22 24 25 27 27 27 27 28 28 28 30 30 30 29 29 30 30 29 29 29 28 27 27 27 27 27 27 27 27 27 27 27 28 29 29 28 27 27 27 26 27 28 29 29 30 31 31 31 31 31 31 31 31 30 28 27 27 30 32 32 31 30
Wind_Direction
334 330 337 343 343 335 334 338 337 335 335 333 331 328 327 326 322 319 316 314 311 310 309 306 303 301 296 292 286 279 274 271 264 256 254 253 245 241 240 238 237 238 235 228 220 208 174 191 211 211 217 218 219 221 221 220 218 218 219 218 217 216 215
358 339 335 336 338 335 331 330 331 332 331 328 327 326 326 326 323 320 316 314 311 308 307 304 301 300 297 292 286 282 278 273 268 263 255 250 247 245 240 234 231 231 230 226 222 216 203 193 192 197 205 211 218 221 221 222 221 220 221 221 220 217 215
16 356 341 338 341 339 333 331 331 330 327 325 326 326 327 327 325 322 321 317 314 311 307 304 300 297 294 290 286 284 282 278 273 269 262 254 250 248 245 238 227 222 222 221 217 216 215 212 213 211 195 196 211 220 220 220 221 221 222 222 222 219 216
2 343 334 338 336 327 330 337 334 328 326 326 326 326 327 329 326 324 323 319 315 311 308 306 302 297 293 291 288 284 282 281 278 275 270 265 259 252 247 242 231 223 218 216 213 208 205 205 207 215 203 202 209 216 218 219 219 219 219 220 221 219 218
355 346 345 348 341 331 336 340 335 330 328 327 327 327 330 332 331 330 327 322 318 314 311 309 306 302 298 293 289 284 281 280 279 277 274 271 267 262 255 247 239 231 224 225 223 212 207 206 201 206 204 202 211 220 219 218 219 219 218 219 221 221 220
355 359 4 1 356 350 344 341 342 341 336 333 332 333 335 337 338 337 333 330 329 325 320 314 308 305 302 296 291 288 285 284 283 280 276 274 272 268 263 255 243 235 230 230 229 216 209 208 204 206 204 201 209 217 213 211 214 218 219 219 221 222 223
6 21 26 20 10 358 348 349 353 350 344 339 338 339 340 340 341 342 340 340 339 336 330 323 315 310 308 303 299 293 287 287 287 284 280 278 275 270 266 260 248 240 235 232 230 221 211 208 204 200 196 206 211 204 201 203 203 208 215 219 221 222 223
58 64 58 40 23 8 1 1 358 353 351 349 348 349 349 346 346 347 348 346 343 340 337 332 324 316 312 310 308 303 295 292 288 284 282 279 276 273 268 263 256 249 244 237 231 226 218 213 211 207 198 197 213 202 196 200 199 204 211 215 218 219 221
77 71 62 47 34 25 16 9 5 5 5 4 2 359 356 357 358 356 353 351 349 347 345 343 336 326 318 315 314 310 302 297 292 287 286 282 278 277 273 266 259 253 250 242 232 229 225 220 217 212 203 199 208 205 198 199 197 209 213 212 214 218 220
81 70 62 52 41 32 22 15 16 20 18 13 8 3 360 2 5 1 357 355 356 355 353 351 349 342 333 326 320 313 306 300 297 294 290 285 281 279 275 269 262 254 250 244 235 230 226 222 219 215 209 206 208 205 196 202 195 201 210 211 213 216 218
84 72 62 52 38 32 29 23 21 25 25 19 12 5 3 4 3 0 0 359 359 2 0 357 355 350 343 338 334 330 323 313 308 306 302 296 290 283 277 271 264 255 248 243 237 230 226 223 220 217 214 211 212 210 197 188 201 204 203 207 213 216 215
75 59 47 42 33 29 28 19 15 26 29 20 12 7 6 7 6 4 6 4 3 5 2 359 359 355 350 348 348 348 343 334 330 329 324 319 312 298 285 276 268 260 251 244 240 235 230 226 219 216 215 214 213 212 207 192 205 212 204 204 212 217 218
63 52 42 40 34 32 28 16 18 30 29 18 14 13 9 10 11 12 13 11 8 7 4 6 9 5 359 355 354 355 350 343 341 342 341 341 343 330 301 283 272 263 252 242 237 234 230 224 220 218 218 216 215 216 216 213 219 219 211 212 215 216 219
51 52 50 47 41 35 31 30 35 38 34 27 23 18 12 12 15 18 20 18 15 13 10 13 18 15 8 2 2 8 5 357 350 351 355 356 356 348 328 306 290 277 262 249 238 231 228 227 224 223 222 220 218 218 217 215 222 232 215 214 217 215 216
46 47 53 55 49 39 38 47 51 47 43 37 29 21 16 19 22 24 26 24 20 17 16 17 19 18 15 10 9 13 15 10 1 357 1 2 356 350 343 331 317 305 284 266 253 245 238 232 225 222 221 219 216 217 216 211 214 231 222 212 213 214 213
58 61 65 65 62 56 56 59 57 52 50 45 38 31 28 29 33 34 34 32 27 24 24 24 20 17 16 13 8 10 17 19 14 9 8 7 2 355 352 346 339 336 321 292 275 270 272 264 240 222 215 214 215 218 220 216 215 221 224 216 211 212 212
71 72 72 72 71 67 65 65 63 60 58 53 48 45 42 41 41 41 39 37 33 31 30 29 26 24 23 20 13 10 16 21 22 20 14 10 7 2 358 354 351 349 339 326 311 288 286 295 261 222 209 214 217 218 221 222 222 221 217 210 208 210 209
74 75 75 74 73 70 69 69 67 64 61 59 57 56 53 48 45 44 42 39 35 33 32 29 28 29 33 35 32 29 28 28 30 30 22 16 11 7 3 357 354 353 345 339 339 321 300 293 260 222 212 220 218 217 221 221 219 219 215 210 210 207 205
74 76 79 78 76 74 71 71 70 67 63 63 63 63 58 52 47 46 45 42 39 35 33 32 31 30 37 43 43 42 39 36 35 35 34 31 25 18 11 3 356 354 350 344 339 329 313 283 246 225 219 223 220 217 218 215 212 213 214 218 220 209 202
77 79 82 82 79 76 73 71 70 69 68 66 65 64 61 55 52 50 46 45 43 38 36 38 38 37 41 45 45 44 41 37 35 34 33 33 32 27 21 14 6 359 352 346 340 333 319 287 251 230 221 222 222 219 218 215 213 213 212 214 220 211 199
81 81 83 83 78 74 73 72 71 72 71 68 66 64 61 57 55 53 49 46 45 42 41 41 41 45 48 48 46 44 41 38 37 36 33 32 33 31 30 28 21 12 3 346 333 331 322 305 286 265 245 232 227 223 222 222 220 219 216 212 212 206 197
82 82 81 79 77 75 75 73 73 73 70 67 66 64 61 59 57 55 52 50 48 46 44 41 40 47 54 54 52 50 47 43 40 38 36 36 37 36 34 34 31 25 20 10 351 340 336 324 309 292 278 265 251 235 224 224 223 221 221 217 205 194 193
82 83 80 79 78 76 76 75 73 71 69 66 65 63 62 60 58 57 54 53 52 50 48 45 42 46 55 58 57 54 50 47 44 41 38 38 39 39 36 34 34 33 31 28 20 9 357 342 318 300 289 281 266 247 231 228 228 223 221 222 211 194 190
84 84 82 81 80 78 77 76 74 72 69 67 65 64 63 61 59 57 56 56 55 54 53 52 49 48 52 55 57 56 52 49 47 43 41 40 40 41 41 37 35 34 34 32 30 24 17 8 353 334 309 291 277 261 248 243 241 233 222 221 220 209 200
82 82 82 82 81 79 79 77 74 72 70 68 67 66 64 62 60 59 58 58 58 57 56 55 54 53 53 55 57 57 56 53 49 45 42 43 43 44 45 42 38 38 37 35 35 33 29 25 20 12 358 338 318 293 263 248 248 243 229 226 228 222 217
79 80 81 82 81 80 79 77 74 73 71 70 70 69 67 65 63 61 60 59 58 58 58 58 58 58 57 57 57 58 57 55 52 48 45 44 45 46 46 44 41 41 41 42 43 42 42 42 41 37 31 24 15 6 350 257 248 249 241 240 244 241 236
81 81 82 83 82 81 79 77 75 73 73 73 72 70 67 66 64 62 61 60 58 58 58 59 61 62 61 61 60 59 59 57 55 52 48 46 45 44 44 43 40 39 40 42 45 47 49 50 51 51 49 47 42 36 35 33 24 341 277 263 263 266 260
88 87 86 85 84 82 80 78 76 74 74 73 72 70 68 66 63 61 59 59 58 57 56 57 60 63 63 63 62 61 60 59 58 55 52 48 46 43 42 41 40 38 36 36 38 46 51 52 54 57 56 53 50 47 44 40 35 29 11 336 304 296 276
94 91 89 87 85 83 81 79 77 76 76 75 73 71 69 66 64 62 60 60 59 57 55 55 58 61 62 62 61 60 59 58 57 56 53 51 49 46 44 42 41 39 37 34 34 39 49 52 53 55 56 55 53 52 51 48 46 44 38 29 16 3 333
94 92 90 88 85 84 83 81 80 79 79 76 74 71 69 67 65 64 62 61 60 58 56 55 57 59 60 61 60 58 57 56 55 54 52 52 52 50 48 46 45 44 41 38 35 34 40 48 50 49 49 50 51 51 51 54 56 54 51 47 42 38 35
93 91 90 89 88 87 86 84 82 82 81 78 75 73 71 70 68 66 64 62 61 60 58 55 55 56 57 59 60 58 57 56 55 52 51 51 52 51 50 47 46 46 45 43 41 38 37 41 46 47 46 45 45 43 43 48 55 57 57 56 54 51 49
96 94 93 92 92 90 89 88 86 85 83 80 78 76 74 73 71 68 66 65 63 62 59 56 55 54 54 56 58 59 58 56 53 50 49 49 50 50 49 48 46 46 44 44 45 45 44 44 46 47 47 46 41 36 38 45 50 51 52 52 52 52 50
102 99 99 97 96 94 93 91 89 87 85 82 79 77 75 73 71 68 67 65 63 62 59 57 55 55 55 55 57 58 58 56 52 49 48 47 47 47 47 46 46 45 44 44 44 45 47 49 50 49 49 47 41 37 43 50 51 50 49 48 47 48 49
107 105 104 102 100 98 95 93 91 88 86 84 81 78 75 73 72 69 66 65 63 61 59 57 55 54 53 53 53 55 55 54 51 50 49 48 47 46 45 44 43 42 43 45 45 45 45 46 47 47 47 46 43 42 47 50 49 51 51 49 47 45 44
111 109 108 106 103 99 96 95 92 89 87 85 82 79 77 75 74 71 69 67 65 63 61 58 56 54 52 51 51 51 52 52 51 51 51 50 48 47 45 44 42 40 41 42 43 44 45 44 44 44 42 41 40 40 43 45 46 49 49 48 47 44 40
115 112 110 108 104 100 98 96 93 90 88 86 83 81 78 77 76 74 72 70 69 66 64 62 59 56 54 52 51 52 53 54 53 53 54 54 51 48 46 43 42 40 40 42 42 43 43 42 42 41 39 39 38 37 37 39 40 43 45 44 42 40 37
117 114 111 109 106 102 99 97 94 91 89 87 84 81 78 78 77 75 72 71 69 68 66 63 60 58 56 55 56 56 57 58 56 55 56 56 53 49 46 43 41 40 41 43 43 44 43 41 39 37 36 36 36 36 37 37 37 40 41 40 38 37 35